Hourly Data Report for September 18, 2017

All times are specified in Local Standard Time (LST). Add 1 hour to adjust for Daylight Saving Time where and when it is observed.

NORTH CAPE
PRINCE EDWARD ISLAND

47°03'29.000" N
63°59'55.000" W
7.60 m
8300516
71987
WNE

Download Data

Hourly Data (September 2017)
Hourly Data Report for September 18, 2017
Temp Definition
°C
Dew Point Temp Definition
°C
Rel Hum Definition
%
Wind Dir Definition
10's deg

Wind Spd Definition
km/h
Visibility Definition
km
Stn Press Definition
kPa
Hmdx Definition


Wind Chill Definition


Weather Definition


TIME
00:00 15.0 11.9 81 10 24   102.19     LegendNANA
01:00 14.8 12.0 83 9 28   102.20     LegendNANA
02:00 14.3 12.1 87 9 27   102.22     LegendNANA
03:00 14.1 12.3 89 10 29   102.18     LegendNANA
04:00 13.9 11.9 88 10 30   102.18     LegendNANA
05:00 13.8 12.3 91 9 30   102.25     LegendNANA
06:00 13.0 12.0 94 9 30   102.32     LegendNANA
07:00 12.7 11.5 93 8 32   102.34     LegendNANA
08:00 13.1 11.6 91 10 31   102.34     LegendNANA
09:00 14.1 12.0 87 11 30   102.38     LegendNANA
10:00 14.6 12.3 86 12 26   102.37     LegendNANA
11:00 15.0 12.6 85 11 25   102.37     LegendNANA
12:00 15.2 12.8 86 11 25   102.35     LegendNANA
13:00 15.1 12.8 86 11 23   102.34     LegendNANA
14:00 15.3 12.6 84 10 24   102.31     LegendNANA
15:00 15.2 13.1 87 11 23   102.32     LegendNANA
16:00 15.0 13.5 91 12 21   102.32     LegendNANA
17:00 15.0 13.6 91 12 19   102.32     LegendNANA
18:00 15.0 13.7 92 11 18   102.31     LegendNANA
19:00 15.0 13.9 94 12 15   102.34     LegendNANA
20:00 14.8 13.9 94 12 12   102.34     LegendNANA
21:00 14.6 13.8 95 14 13   102.36     LegendNANA
22:00 14.5 13.7 95 15 11   102.34     LegendNANA
23:00 14.4 13.7 95 15 10   102.30     LegendNANA

Notes on Data Quality.

Legend

  • E = Estimated
  • M = Missing
  • NA = Not Available
  • ‡ = Partner data that is not subject to review by the National Climate Archives
Date modified: